Flag for U.S.A. Weather past 2 weeks in Spokane, Washington, U.S.A.

Now
36 °F

Low clouds.


Feels Like: 29 °F
Forecast: 35 / 42 °F
Wind: 9 mph from Southwest

Location: Felts Field

Current Time: Jan 27, 2015 at 11:16:36 PM

Latest Report: Jan 27, 2015 at 10:53 PM


Visibility: 10 mi

Pressure: 30.19 "Hg

Humidity: 89%

Dew point: 33 °F

Location of SpokaneLocation

Historic Weather in Spokane — Graph

°F

Spokane temperature yesterday

Maximum temperature yesterday: 51 °F (at 1:53 PM)
Minimum temperature yesterday: 35 °F (at 10:53 PM)
Average temperature yesterday: 40 °F

Past Weeks' High & Low Weather Summary

 TemperatureHumidityPressure
High56 °F (Jan 25, 1:53 PM)97% (Jan 18, 2:53 AM)30.60 "Hg (Jan 18, 2:53 AM)
Low24 °F (Jan 14, 11:53 PM)62% (Jan 25, 1:53 PM)29.82 "Hg (Jan 18, 3:53 AM)
Average35 °F85%30.30 "Hg
* Reported Jan 12 9:53 PM — Jan 27 9:53 PM, Spokane, Weather by CustomWeather, © 2014

Note: Actual official high and low records may vary slightly from our data, if they occured in-between our weather recording intervals... More about our weather records

Advertising

Spokane weather history for previous 24 hours

 ConditionsComfort  
Time TempWeatherWind HumidityBarometerVisibility
9:53 PM
Jan 27
37 °FLow clouds.9 mph89%30.17 "Hg10 mi
8:53 PM38 °FLow clouds.7 mph90%30.15 "Hg10 mi
7:53 PM39 °FPassing clouds.9 mph86%30.12 "Hg10 mi
6:53 PM38 °FPassing clouds.No wind83%30.10 "Hg10 mi
5:53 PM36 °FClear.No wind85%30.08 "Hg9 mi
4:53 PM36 °FPassing clouds.No wind89%30.07 "Hg9 mi
3:53 PM37 °FLight fog.5 mph86%30.05 "Hg9 mi
2:53 PM38 °FLight fog.3 mph83%30.05 "Hg10 mi
1:53 PM38 °FSunny.6 mph83%30.04 "Hg10 mi
12:53 PM38 °FPassing clouds.5 mph83%30.05 "Hg10 mi
11:53 AM36 °FFog.No wind85%30.06 "Hg10 mi
10:53 AM35 °FFog.No wind88%30.08 "Hg5 mi
9:53 AM33 °FFog.3 mph88%30.08 "Hg5 mi
8:53 AM32 °FIce fog.5 mph88%30.07 "Hg3 mi
7:53 AM32 °FIce fog.No wind92%30.06 "Hg3 mi
6:53 AM31 °FIce fog.No wind92%30.05 "Hg3 mi
5:53 AM32 °FIce fog.3 mph88%30.04 "Hg3 mi
4:53 AM33 °FLow clouds.No wind88%30.05 "Hg10 mi
3:53 AM33 °FLow clouds.6 mph88%30.03 "Hg10 mi
2:53 AM32 °FIce fog.6 mph92%30.03 "Hg2 mi
1:53 AM33 °FLow clouds.3 mph88%30.04 "Hg8 mi
12:53 AM34 °FClear.No wind92%30.04 "Hg10 mi
11:58 PM
Jan 26
35 °FFog.3 mph88%30.01 "Hg3 mi
Weather by CustomWeather, © 2014

See weather overviewHow to use our weather pages